Newport News, VA

1:07 PM EST on November 20, 2017 (GMT -0500)
Newport News-Williamsburg International

Weather History for KPHF - December, 2012

Change the Weather History Date:

Wednesday, December 12, 2012

  Actual Average Record
Temperature  
Mean Temperature 48 °F -  
Max Temperature 50 °F 55 °F 78 °F (2007)
Min Temperature 46 °F 36 °F 14 °F (1957)
Degree Days  
Heating Degree Days 17    
Moisture  
Dew Point 29 °F    
Average Humidity 49    
Maximum Humidity 64    
Minimum Humidity 44    
Precipitation  
Precipitation 0.00 in - - ()
Sea Level Pressure  
Sea Level Pressure 30.31 in    
Wind  
Wind Speed 10 mph (NE)    
Max Wind Speed 16 mph    
Max Gust Speed 21 mph    
Visibility 10 miles    
Events      
Averages and records for this station are not official NWS values.
T = Trace of Precipitation, MM = Missing Value Source: NWS Daily Summary

Daily Weather History Graph

Daily Weather History Graph

Search for Another Location

Airport or City:

Trip Planner

Search our weather history database for the weather conditions in past years. The results will help you decide how hot, cold, wet, or windy it might be!

Date:

Astronomy

Dec. 12, 2012 Rise Set
Actual Time 7:10 AM EST 4:49 PM EST
Civil Twilight 6:41 AM EST 5:18 PM EST
Nautical Twilight 6:08 AM EST 5:50 PM EST
Astronomical Twilight 5:37 AM EST 6:22 PM EST
Moon 6:12 AM EST (12/12) 4:23 PM EST (12/12)
Length of Visible Light 10h 36m
Length of Day
9h 38m
Waning Crescent, 1% of the Moon is Illuminated
Dec 12
Waning Crescent
Dec 13
New
Dec 20
First Quarter
Dec 28
Full
Jan 4
Last Quarter

Hourly Weather History & Observations

Time (EST) Temp. Windchill Dew Point Humidity Pressure Visibility Wind Dir Wind Speed Gust Speed Precip Events Conditions
12:54 AM 50.0 °F - 36.0 °F 59% 30.19 in 10.0 mi NNE 6.9 mph - N/A   Overcast
1:54 AM 48.9 °F - 37.0 °F 64% 30.21 in 10.0 mi NE 8.1 mph - N/A   Mostly Cloudy
2:54 AM 48.9 °F - 34.0 °F 56% 30.24 in 10.0 mi NNE 10.4 mph - N/A   Overcast
3:54 AM 48.0 °F - 30.9 °F 52% 30.24 in 10.0 mi NNE 11.5 mph - N/A   Overcast
4:54 AM 46.9 °F - 30.0 °F 52% 30.25 in 10.0 mi NE 10.4 mph 20.7 mph N/A   Overcast
5:54 AM 46.9 °F - 28.0 °F 48% 30.27 in 10.0 mi NE 11.5 mph 19.6 mph N/A   Overcast
6:54 AM 46.9 °F - 28.0 °F 48% 30.29 in 10.0 mi NE 16.1 mph 20.7 mph N/A   Overcast
7:54 AM 46.9 °F - 27.0 °F 46% 30.33 in 10.0 mi NNE 9.2 mph - N/A   Overcast
8:54 AM 46.9 °F - 27.0 °F 46% 30.32 in 10.0 mi NE 11.5 mph 20.7 mph N/A   Overcast
9:54 AM 46.9 °F - 28.0 °F 48% 30.35 in 10.0 mi NE 12.7 mph - N/A   Overcast
10:54 AM 46.9 °F - 26.1 °F 44% 30.36 in 10.0 mi NE 12.7 mph 20.7 mph N/A   Overcast
11:54 AM 48.0 °F - 28.0 °F 46% 30.35 in 10.0 mi NNE 8.1 mph 17.3 mph N/A   Overcast
12:54 PM 48.0 °F - 27.0 °F 44% 30.34 in 10.0 mi NNE 12.7 mph 20.7 mph N/A   Overcast
1:54 PM 46.9 °F - 27.0 °F 46% 30.34 in 10.0 mi NNE 12.7 mph 17.3 mph N/A   Overcast
2:54 PM 48.0 °F - 27.0 °F 44% 30.32 in 10.0 mi NNE 10.4 mph 20.7 mph N/A   Mostly Cloudy
3:54 PM 46.9 °F - 28.9 °F 50% 30.32 in 10.0 mi NNE 9.2 mph - N/A   Mostly Cloudy
4:54 PM 46.0 °F 41.4 °F 28.0 °F 50% 30.35 in 10.0 mi NNE 9.2 mph 17.3 mph N/A   Partly Cloudy
5:54 PM 46.0 °F 42.5 °F 28.0 °F 50% 30.33 in 10.0 mi NNE 6.9 mph - N/A   Clear
6:54 PM 46.4 °F 42.4 °F 26.6 °F 46% 30.37 in 10.0 mi NE 8.1 mph - N/A   Clear
7:54 PM 46.9 °F - 26.1 °F 44% 30.35 in 10.0 mi NE 13.8 mph 20.7 mph N/A   Clear
8:54 PM 46.0 °F 39.9 °F 27.0 °F 47% 30.35 in 10.0 mi NE 13.8 mph 19.6 mph N/A   Overcast
9:54 PM 46.0 °F 40.2 °F 27.0 °F 47% 30.37 in 10.0 mi NNE 12.7 mph 18.4 mph N/A   Overcast
10:54 PM 46.0 °F 41.0 °F 28.9 °F 51% 30.35 in 10.0 mi NNE 10.4 mph 18.4 mph N/A   Overcast
11:54 PM 46.0 °F 39.9 °F 28.9 °F 51% 30.33 in 10.0 mi NE 13.8 mph 20.7 mph N/A   Overcast